{"data":{"norad_id":59768,"epoch":"2026-09-21T04:03:42.434496Z","epoch_age_seconds":113423,"freshness":"FRESH","line1":"1 59768U 24091R   26264.16924114  .00061001  00000+0  53956-3 0  9997","line2":"2 59768  53.1424 175.1449 0010021  82.5944 277.6212 15.68020658133266","mean_motion":15.68020658,"eccentricity":0.0010021,"inclination_deg":53.1424,"raan_deg":175.1449,"arg_perigee_deg":82.5944,"mean_anomaly_deg":277.6212,"bstar":0.00053956,"rev_number":13326,"period_min":91.835524784266,"perigee_km":357.80847828273,"apogee_km":371.32220231315,"semimajor_km":6742.7023402979,"source":"CELESTRAK","updated_at":"2026-09-22T09:00:49.069964Z"}}